GSAT-19

Last updated on Tue Jul 08 2025 00:02:47 GMT+0000 (Coordinated Universal Time)

1 42747U 17031A 25188.57305815 .00000142 00000+0 00000+0 0 9999 2 42747 0.0568 269.2583 0006241 190.6689 80.0418 1.00273190 29681
UTC large
Height (km)
Speed (km/s)
/
Latitude / Longitude
Inclination (degrees)
Orbital Period (minutes)
Azimuth
Elevation
Range (km)
Doppler Factor

Next 0 passes for location: London (51.5072 / 0.1276)

Sorry there are no passes over London.